User: anonymous   Login
Location: Belfast
(54.5830°N, 5.9330°W)
Time: 08:55:42
(UTC+00:00)
Language:

Coronas F rocket - Orbit

View from above orbital plane
View from above orbital plane
View from above satellite
View from above satellite

Ground track
Ground track

The orbit data is extracted from the following two-line orbital elements,

1 26874U 01032B   17053.56634731  .00088709  19996-5  15754-3 0  9990
2 26874  82.4558   4.1090 0002992  46.6734 312.9294 16.01764466875402
Epoch (UTC): 22 February 2017 13:35:32
Eccentricity: 0.0002992
inclination: 82.4558°
perigee height: 267 km
apogee height: 271 km
right ascension of ascending node: 4.1090°
argument of perigee: 46.6734°
revolutions per day: 16.01764466
mean anomaly at epoch: 312.9294°
orbit number at epoch: 87540

The dashed part of the orbit path shows where the satellite is in the earth's shadow,  

DLR